Zurück zum Katalog

FENGYUN 1C DEB

AktivLEO
NORAD 37707·DEBRIS·🇨🇳 China

Gestartet May 10, 1999 von Taiyuan Satellite Launch Center

Loading…

Nächste Überflüge (nächste 24 Stunden)

TLE

AktuellSource: Space-Track

Epoche: Sep 14, 2026, 10:11 UTC

1 37707U 99025ELY 26257.42485219  .00001104  00000-0  22626-3 0  9993
2 37707 100.1987 328.3213 0139663 301.8861 117.9379 14.57757061895810

Verfolge FENGYUN 1C DEB in Echtzeit mit AllMySat

Download on the App Store